Weather Service Report


876 
ASUS41 KCLE 231812
RWRCLE
OHIO REGIONAL WEATHER ROUNDUP
NATIONAL WEATHER SERVICE WILMINGTON, OH
100 PM EST THU NOV 23 2017

NOTE: "FAIR" INDICATES FEW OR NO CLOUDS BELOW 12,000 FEET WITH NO
SIGNIFICANT WEATHER AND/OR OBSTRUCTIONS TO VISIBILITY.

OHZ001>008-015>018-024>027-034-035-043-044-231900-
   NORTHWEST OHIO
  
CITY           SKY/WX    TMP DP  RH WIND       PRES   REMARKS
DEFIANCE       CLOUDY    38  25  59 S16       30.03F                  
FINDLAY        CLOUDY    39  25  57 SW9       30.04F                  
TOLEDO EXPRESS CLOUDY    37  26  64 SW10      30.03F                  
TOLEDO EXEC    CLOUDY    37  26  64 SW13      30.04F                  
LIMA           CLOUDY    38  27  64 S9        30.04F                  
$$
 
OHZ009>014-019>023-028>033-038-089-231900-
   NORTHEAST OHIO
  
CITY           SKY/WX    TMP DP  RH WIND       PRES   REMARKS
CLE-HOPKINS    PTSUNNY   39  24  55 SW12G20   30.08F                  
CLE-LAKEFRONT  CLOUDY    39  22  50 S10       30.05F                  
CUY CO. ARPT   CLOUDY    37  23  56 SW10      30.06F                  
LORAIN-ELYRIA  CLOUDY    38  22  52 SW10      30.06F                  
ASHTABULA      CLOUDY    35  23  61 S9        30.06F WCI  28          
AKRON-CANTON   PTSUNNY   37  22  54 VRB5      30.06F                  
WOOSTER        FAIR      37  23  56 SW9       30.06F                  
MANSFIELD      CLOUDY    37  24  59 SW7       30.05F                  
YOUNGSTOWN     CLOUDY    36  22  56 SW10      30.05F                  
$$
 
OHZ042-051>053-060>062-070>072-077>081-231900-
  SOUTHWEST OHIO
  
CITY           SKY/WX    TMP DP  RH WIND       PRES   REMARKS
CINC-COVINGTON PTSUNNY   42  29  59 S6        30.08F                  
CINC-LUNKEN    PTSUNNY   42  28  57 VRB3      30.11F                  
HAMILTON       FAIR      42  28  57 VRB3      30.11F                  
DAYTON         PTSUNNY   39  28  64 S8        30.08F                  
WRIGHT-PAT AFB CLOUDY    41  23  49 SW7       30.08F                  
DAYTON GENERAL CLOUDY    40  27  59 S8        30.08F                  
WILMINGTON     PTSUNNY   38  27  64 S5        30.08F                  
$$

OHZ036-037-039>041-045>050-054>059-063>069-073>076-082>088-231900-
  CENTRAL AND SOUTHEAST OHIO
  
CITY           SKY/WX    TMP DP  RH WIND       PRES   REMARKS
COLUMBUS       FAIR      39  25  57 VRB7      30.09F                  
OSU AIRPORT    FAIR      39  27  62 VRB5      30.08F                  
BOLTON FIELD   SUNNY     39  27  60 SW3       30.09F                  
RICKENBACK AFB FAIR      37  26  62 W5        30.10F                  
NEWARK         FAIR      39  24  55 SW6       30.08F                  
MARION         CLOUDY    38  26  62 SW10      30.07F                  
LANCASTER      FAIR      39  27  62 SW7       30.10F                  
ZANESVILLE     FAIR      37  23  56 SE5       30.10F                  
NEW PHILLY     FAIR      39  23  52 SW5       30.09F                  
$$
  

Return to Home page


Western Regional Climate Center, wrcc@dri.edu